This demonstration page uses our WeatherBlox Daily Observations layout. Learn more.

41.55636, -103.73856

Hourly Observations for April 10, 2019

Temp ( °F °C ) Dew Point ( °F °C ) Humidity (%) Winds ( mph kmh ) Pressure ( in mb ) Visibility ( mi km ) Precip ( " mm )
12:53 am 00:53 Mostly Cloudy 44 6.7 38 3.3 79 79 NE 28 44 29.5 999 10 16.09344 0 0
1:15 am 01:15 Cloudy 44 6.7 38 3.3 79 79 NE 23 37 29.59 1002 10 16.09344 0 0
1:53 am 01:53 Cloudy 44 6.7 38 3.3 79 79 NE 29 46 29.47 998 10 16.09344 0 0
2:53 am 02:53 Cloudy 42 5.6 37 2.8 82 82 NE 28 44 29.47 998 10 16.09344 0 0
3:32 am 03:32 Cloudy 41 5 36 2.2 82 82 NE 21 33 29.65 1004 10 16.09344 0 0
3:53 am 03:53 Cloudy 41 5 36 2.2 82 82 NE 23 37 29.53 1000 10 16.09344 0 0
4:12 am 04:12 Cloudy 39 4 36 2 87 87 NE 25 41 29.68 1005 10 16.09344 0 0
4:53 am 04:53 Cloudy with Mist and Fog 39 3.9 37 2.8 93 93 NE 21 33 29.56 1001 6 9.656064 0 0
5:07 am 05:07 Cloudy with Light Rain 39 3.9 37 2.8 93 93 NE 20 31 29.68 1005 5 8.04672 0.001 0.001
5:34 am 05:34 Cloudy 39 4 36 2 87 87 NE 18 30 29.68 1005 7 11.265408 0 0
5:53 am 05:53 Cloudy 38 3.3 36 2.2 93 93 NE 23 37 29.53 1000 9 14.484096 0.001 0.001
6:51 am 06:51 Cloudy 37 3 36 2 93 93 NE 20 31 29.68 1005 10 16.09344 0 0
6:53 am 06:53 Cloudy 38 3.3 35 1.7 89 89 NE 21 33 29.56 1001 10 16.09344 0 0
7:29 am 07:29 Cloudy 34 1.1 31 -0.6 89 89 NE 22 35 29.71 1006 10 16.09344 0 0
7:53 am 07:53 Cloudy 34 1.1 30 -1.1 85 85 NE 25 41 29.59 1002 10 16.09344 0 0
8:53 am 08:53 Cloudy 32 0 28 -2.2 85 85 NNE 23 37 29.59 1002 10 16.09344 0 0
9:53 am 09:53 Windy with Snow Likely 31 -0.6 27 -2.8 85 85 NE 29 46 29.62 1003 5 8.04672 0.001 0.001
10:30 am 10:30 Windy with Snow Likely 32 0 27 -3 80 80 NE 28 44 29.77 1008 1.75 2.816352 0 0
10:53 am 10:53 Cloudy with Light Snow 31 -0.6 28 -2.2 89 89 NNE 15 24 29.68 1005 1.25 2.01168 0.01 0.254
11:06 am 11:06 Cloudy with Light Snow 30 -1 28 -2 93 93 NE 18 30 29.83 1010 2.5 4.02336 0 0
11:20 am 11:20 Cloudy with Light Snow 31 -0.6 27 -2.8 85 85 N 18 30 29.8 1009 1.5 2.414016 0.001 0.001
11:29 am 11:29 Cloudy with Light Snow 30 -1.1 26 -3.3 85 85 N 12 19 29.83 1010 1.25 2.01168 0.001 0.001
11:53 am 11:53 Cloudy with Light Snow 29 -1.7 26 -3.3 89 89 NNE 18 30 29.68 1005 1 1.609344 0.01 0.254
12:00 pm 12:00 Windy with Snow Likely 28 -2 25 -4 86 86 NNE 23 37 29.83 1010 0.75 1.207008 0 0
12:08 pm 12:08 Windy with Snow Likely 30 -1 27 -3 86 86 NNE 28 44 29.8 1009 1.5 2.414016 0 0
12:18 pm 12:18 Windy with Snow Likely 28 -2 25 -4 86 86 NNE 26 43 29.8 1009 2.5 4.02336 0 0
12:34 pm 12:34 Windy with Snow Likely 28 -2 25 -4 86 86 NNE 31 50 29.8 1009 1 1.609344 0 0
12:53 pm 12:53 Windy with Snow Likely 31 -0.6 26 -3.3 82 82 NNE 31 50 29.62 1003 3 4.828032 0.01 0.254
1:53 pm 13:53 Cloudy 29 -1.7 23 -5 78 78 NNE 30 48 29.65 1004 10 16.09344 0.001 0.001
2:21 pm 14:21 Windy with Snow Likely 27 -2.8 22 -5.6 81 81 NNE 23 37 29.85 1011 1.75 2.816352 0.001 0.001
2:53 pm 14:53 Cloudy with Light Snow 27 -2.8 22 -5.6 81 81 NNE 16 26 29.77 1008 1.75 2.816352 0.01 0.254
3:02 pm 15:02 Cloudy with Light Snow 27 -3 21 -6 80 80 N 15 24 29.85 1011 0.75 1.207008 0 0
3:25 pm 15:25 Windy with Snow Likely 26 -3.3 21 -6.1 81 81 N 22 35 29.85 1011 1.25 2.01168 0.02 0.508
3:53 pm 15:53 Windy with Snow Likely 26 -3.3 21 -6.1 81 81 N 22 35 29.77 1008 0.75 1.207008 0.03 0.762
4:02 pm 16:02 Mostly Cloudy with Heavy Snow 25 -4 21 -6 86 86 NNE 17 28 29.91 1013 0.25 0.402336 0 0
4:20 pm 16:20 Mostly Cloudy with Heavy Snow 24 -4.4 21 -6.1 88 88 N 20 31 29.91 1013 0.25 0.402336 0.01 0.254
4:32 pm 16:32 Cloudy with Light Snow 25 -4 21 -6 86 86 N 18 30 29.91 1013 0.5 0.804672 0 0
4:43 pm 16:43 Cloudy with Light Snow 24 -4.4 20 -6.7 84 84 N 16 26 29.91 1013 2 3.218688 0.03 0.762
4:53 pm 16:53 Cloudy with Light Snow 24 -4.4 19 -7.2 81 81 N 15 24 29.8 1009 2.5 4.02336 0.03 0.762
5:03 pm 17:03 Cloudy with Light Snow 24 -4.4 19 -7.2 81 81 N 18 30 29.91 1013 4 6.437376 0.001 0.001
5:53 pm 17:53 Cloudy 23 -5 18 -7.8 81 81 N 24 39 29.83 1010 9 14.484096 0.001 0.001
6:22 pm 18:22 Windy with Snow Likely 23 -5 18 -8 80 80 N 24 39 29.94 1014 2 3.218688 0 0
6:40 pm 18:40 Windy with Snow Likely 21 -6 18 -8 86 86 N 22 35 30 1016 4 6.437376 0 0
6:53 pm 18:53 Windy with Snow Likely 22 -5.6 17 -8.3 82 82 N 22 35 29.85 1011 4 6.437376 0.001 0.001
7:07 pm 19:07 Windy with Snow Likely 22 -5.6 17 -8.3 82 82 N 21 33 30 1016 2.5 4.02336 0.001 0.001
7:19 pm 19:19 Windy with Snow Likely 22 -5.6 17 -8.3 82 82 N 24 39 30 1016 3 4.828032 0.001 0.001
7:53 pm 19:53 Windy with Snow Likely 22 -5.6 17 -8.3 82 82 N 20 31 29.88 1012 3 4.828032 0.001 0.001
8:08 pm 20:08 Cloudy with Light Snow 22 -5.6 17 -8.3 82 82 N 18 30 30.03 1017 2 3.218688 0.001 0.001
8:31 pm 20:31 Cloudy with Light Snow 22 -5.6 17 -8.3 82 82 N 17 28 30.03 1017 1.75 2.816352 0.01 0.254
8:40 pm 20:40 Windy with Snow Likely 22 -5.6 17 -8.3 82 82 N 21 33 30.03 1017 2.5 4.02336 0.01 0.254
8:49 pm 20:49 Windy with Snow Likely 21 -6 18 -8 86 86 N 23 37 30.03 1017 3 4.828032 0.01 0.254
8:53 pm 20:53 Windy with Snow Likely 22 -5.6 17 -8.3 82 82 N 23 37 29.91 1013 2.5 4.02336 0.01 0.254
9:04 pm 21:04 Cloudy with Light Snow 21 -6 18 -8 86 86 N 15 24 30.03 1017 1.75 2.816352 0 0
9:53 pm 21:53 Cloudy with Light Snow 21 -6.1 18 -7.8 88 88 N 14 22 29.94 1014 1.25 2.01168 0.02 0.508
10:28 pm 22:28 Cloudy with Light Snow 21 -6 18 -8 86 86 NNW 14 22 30.06 1018 2.5 4.02336 0 0
10:42 pm 22:42 Cloudy with Light Snow 22 -5.6 18 -7.8 85 85 NNW 14 22 30.06 1018 1.5 2.414016 0.01 0.254
10:53 pm 22:53 Cloudy with Light Snow 22 -5.6 18 -7.8 85 85 NNW 14 22 29.91 1013 1.25 2.01168 0.01 0.254
11:53 pm 23:53 Cloudy with Light Snow 22 -5.6 18 -7.8 85 85 NNW 18 30 29.91 1013 1.5 2.414016 0.02 0.508

Powered by AerisWeather